Home > Time Zones > World Clock > Weather > Italy > Rome > Past weeks

Flag for Italy Weather past 2 weeks in Rome, Italy

Now
77 °F

Passing clouds.


Feels Like: 79 °F
Forecast: 69 / 78 °F
Wind: 7 mph from South

Location: Rome / Ciampino

Current Time: Sep 5, 2015 at 1:58:46 AM

Latest Report: Sep 5, 2015 at 1:20 AM


Visibility: N/A

Pressure: 29.92 "Hg

Humidity: 74%

Dew point: 68 °F

Location of RomeLocation

Historic Weather in Rome — Graph

°F

Rome temperature yesterday

Maximum temperature yesterday: 84 °F (at 10:50 AM)
Minimum temperature yesterday: 68 °F (at 2:50 PM)
Average temperature yesterday: 77 °F

Past Weeks' High & Low Weather Summary

 TemperatureHumidityPressure
High95 °F (Aug 31, 1:50 PM)94% (Sep 4, 2:50 PM)30.18 "Hg (Sep 4, 2:50 PM)
Low63 °F (Aug 22, 6:20 AM)21% (Aug 30, 3:20 PM)29.89 "Hg (Sep 4, 9:50 PM)
Average77 °F60%30.02 "Hg
* Reported Aug 21 12:20 AM — Sep 5 12:20 AM, Rome, Weather by CustomWeather, © 2015

Note: Actual official high and low records may vary slightly from our data, if they occured in-between our weather recording intervals... More about our weather records

Advertising

Rome weather history for previous 24 hours

 ConditionsComfort  
Time TempWeatherWind HumidityBarometerVisibility
12:20 AM
Sat, Sep 5
75 °FPassing clouds.5 mph74%29.92 "HgN/A
11:50 PM
Fri, Sep 4
75 °FClear.6 mph74%29.92 "Hg10 mi
11:20 PM75 °FPassing clouds.7 mph74%29.89 "HgN/A
10:50 PM75 °FClear.13 mph74%29.89 "Hg10 mi
10:20 PM75 °FClear.10 mph74%29.92 "Hg10 mi
9:50 PM75 °FPassing clouds.14 mph74%29.89 "HgN/A
9:20 PM75 °FClear.9 mph78%29.95 "HgN/A
8:50 PM75 °FPassing clouds.6 mph83%29.95 "HgN/A
8:20 PM75 °FBroken clouds.8 mph83%29.95 "HgN/A
7:50 PM75 °FPartly sunny.7 mph89%29.95 "HgN/A
7:20 PM77 °FPartly sunny.8 mph83%29.95 "HgN/A
6:50 PM77 °FPartly sunny.3 mph83%29.95 "HgN/A
6:20 PM79 °FPartly sunny.5 mph79%29.95 "HgN/A
5:50 PM79 °FPartly sunny.6 mph74%29.95 "HgN/A
5:20 PM79 °FPartly sunny.7 mph74%29.95 "HgN/A
4:50 PM79 °FScattered clouds.10 mph79%29.95 "HgN/A
4:20 PM77 °FScattered clouds.3 mph79%29.92 "HgN/A
3:50 PM75 °FScattered clouds.10 mph78%29.92 "HgN/A
3:20 PM73 °FScattered clouds.6 mph89%29.92 "HgN/A
2:50 PM68 °FThunderstorms. Partly sunny.10 mph94%29.98 "Hg4 mi
2:20 PM79 °FThunderstorms. Scattered clouds.14 mph74%29.98 "Hg5 mi
1:50 PM82 °FLight rain. Scattered clouds.14 mph62%29.95 "Hg6 mi
1:20 PM82 °FPartly sunny.15 mph58%29.95 "Hg6 mi
12:50 PM84 °FPartly sunny.14 mph55%29.95 "Hg6 mi
12:20 PM84 °FScattered clouds.14 mph58%29.95 "Hg6 mi
11:50 AM84 °FScattered clouds.13 mph58%29.95 "Hg6 mi
11:20 AM82 °FScattered clouds.14 mph62%29.95 "HgN/A
10:50 AM84 °FScattered clouds.13 mph58%29.95 "HgN/A
10:20 AM82 °FScattered clouds.13 mph62%29.95 "HgN/A
9:50 AM81 °FPassing clouds.12 mph66%29.95 "HgN/A
9:20 AM81 °FPassing clouds.9 mph66%29.95 "HgN/A
8:50 AM79 °FSunny.9 mph70%29.95 "Hg10 mi
8:20 AM77 °FSunny.9 mph74%29.95 "Hg10 mi
7:50 AM75 °FSunny.7 mph83%29.95 "Hg10 mi
7:20 AM75 °FPassing clouds.7 mph83%29.95 "HgN/A
6:50 AM75 °FClear.7 mph83%29.95 "Hg10 mi
6:20 AM73 °FPassing clouds.7 mph89%29.92 "HgN/A
5:50 AM73 °FPassing clouds.6 mph89%29.95 "HgN/A
5:20 AM73 °FClear.3 mph89%29.95 "Hg10 mi
4:50 AM73 °FPassing clouds.3 mph83%29.92 "HgN/A
4:20 AM73 °FPassing clouds.3 mph83%29.92 "HgN/A
3:20 AM72 °FPassing clouds.1 mph83%29.95 "HgN/A
2:50 AM72 °FPassing clouds.2 mph83%29.92 "HgN/A
2:20 AM73 °FPassing clouds.2 mph78%29.92 "HgN/A
1:20 AM73 °FPassing clouds.3 mph83%29.95 "HgN/A
Weather by CustomWeather, © 2015

See weather overviewHow to use our weather pages